XW-2A
1 40903U 15049E 16252.84645075 .00003984 00000-0 11214-3 0 9996
2 40903 97.4443 269.0301 0015363 188.9836 171.1136 15.36969681 54408
XW-2C
1 40906U 15049H 16252.86005905 .00001630 00000-0 93536-4 0 9997
2 40906 97.4550 258.1507 0017275 106.6380 253.6750 15.13816677 53668
LILACSAT-2
1 40908U 15049K 16252.79906987 .00000949 00000-0 57748-4 0 9998
2 40908 97.4616 257.9236 0018071 101.7710 258.5550 15.12682607 53628
UO-11
1 14781U 84021B 16252.84743180 .00000201 00000-0 31207-4 0 9997
2 14781 97.7408 302.2522 0009575 48.3295 311.8737 14.82788459748657
LO-19
1 20442U 90005G 16252.79440403 .00000033 00000-0 28141-4 0 9999
2 20442 98.5462 186.5857 0010581 258.6479 101.3516 14.32828499391329
AO-27
1 22825U 93061C 16252.14135155 .00000035 00000-0 31041-4 0 9990
2 22825 98.7680 208.9365 0009557 76.8639 283.3609 14.29966862197097
IO-26
1 22826U 93061D 16252.86649543 .00000033 00000-0 30171-4 0 9992
2 22826 98.7624 209.7814 0010024 66.7704 293.4533 14.30292699197366
GO-32
1 25397U 98043D 16252.84941885 .00000013 00000-0 24652-4 0 9990
2 25397 98.5730 195.6450 0002445 92.6716 267.4742 14.23601799943769
NO-44
1 26931U 01043C 16252.05371071 -.00000024 00000-0 22611-4 0 9992
2 26931 67.0502 99.1186 0005452 263.6640 96.3840 14.30422694779996
SO-50
1 27607U 02058C 16252.48124612 .00000108 00000-0 36253-4 0 9993
2 27607 64.5539 266.3501 0058859 198.3835 161.5141 14.75204635737554
CO-55
1 27844U 03031E 16252.48359591 .00000079 00000-0 55468-4 0 9990
2 27844 98.6936 259.5768 0010923 82.9956 277.2464 14.21974171684281
CO-57
1 27848U 03031J 16252.47823946 .00000064 00000-0 49028-4 0 9992
2 27848 98.7032 259.7035 0010840 90.8135 269.4284 14.21597747684178
CO-65
1 32785U 08021C 16252.84460583 .00000483 00000-0 58686-4 0 9992
2 32785 97.5967 283.5546 0013802 26.5716 333.6205 14.87650452453066
PRISM
1 33493U 09002B 16252.86640728 .00001986 00000-0 18661-3 0 9999
2 33493 98.2057 116.8597 0014392 294.4511 65.5191 14.95121825413730
TISAT-1
1 36799U 10035E 16252.86843496 .00001115 00000-0 12168-3 0 9996
2 36799 98.0370 4.4759 0012947 165.4135 194.7458 14.89954135333882
ALMASAT-1
1 38078U 12006B 16252.19747729 .00037594 37980-5 47828-3 0 9999
2 38078 69.4477 163.3810 0367485 341.8688 16.9640 15.07736919242077
DUCHIFAT-1
1 40021U 14033M 16252.72506626 .00000895 00000-0 99957-4 0 9993
2 40021 97.9241 159.4191 0013947 142.3108 217.9089 14.89441751120692
NANOSATCBR1
1 40024U 14033Q 16252.73955088 .00000801 00000-0 91414-4 0 9994
2 40024 97.9213 158.7266 0013207 142.1921 218.0226 14.88833240120668
DTUSAT-2
1 40030U 14033W 16252.71098988 .00000623 00000-0 74369-4 0 9998
2 40030 97.9182 157.5009 0012941 138.3650 221.8553 14.87738854120593
ANTELSAT
1 40034U 14033AA 16252.89564776 .00000584 00000-0 95048-4 0 9997
2 40034 97.8921 138.9681 0060389 116.1774 244.5659 14.73460213119500
MET-2/21
1 22782U 93055A 16252.10254538 .00000027 00000-0 10986-4 0 9994
2 22782 82.5462 247.4270 0023399 139.4873 286.4363 13.83790442162683
NOAA-15
1 25338U 98030A 16252.52460270 .00000052 00000-0 40816-4 0 9993
2 25338 98.7852 256.8490 0009688 308.4019 51.6290 14.25751545952864
NOAA-18
1 28654U 05018A 16252.51889695 .00000045 00000-0 50091-4 0 9994
2 28654 99.1981 261.6193 0015005 138.6041 221.6270 14.12303021582491
NOAA-19
1 33591U 09005A 16252.48525829 .00000101 00000-0 80066-4 0 9990
2 33591 99.0487 209.9763 0013897 349.1892 10.8979 14.12104122390891
HUBBLE
1 20580U 90037B 16252.87654480 .00000917 00000-0 46111-4 0 9996
2 20580 28.4700 66.0086 0002916 31.0418 112.8645 15.08484429247767
ISS
1 25544U 98067A 16252.78182069 .00005937 00000-0 95676-4 0 9998
2 25544 51.6450 0.9314 0002706 308.8858 154.8280 15.54469489 17994
CO-58
1 28895U 05043F 16252.45490811 .00000284 00000-0 63670-4 0 9992
2 28895 97.8391 62.2360 0015954 318.9573 41.0428 14.63248313579285
AAUSAT2
1 32788U 08021F 16252.06472799 .00001281 00000-0 12718-3 0 9993
2 32788 97.5963 292.1741 0011953 1.5298 358.5956 14.93376817453562
DO-64
1 32789U 08021G 16251.85899479 .00002907 00000-0 21667-3 0 9997
2 32789 97.5966 309.6225 0012696 345.8471 14.2397 15.03620159454423
CO-66
1 32791U 08021J 16252.06872704 .00000642 00000-0 72224-4 0 9996
2 32791 97.5970 286.2551 0013902 17.5261 342.6434 14.89881436453131
RS-30
1 32953U 08025A 16252.82744909 .00000032 00000-0 15837-3 0 9998
2 32953 82.5011 54.6277 0019149 177.5079 182.6099 12.43071344376462
JUGNU
1 37839U 11058B 16252.50749734 .00000343 00000-0 41062-4 0 9997
2 37839 19.9623 358.3918 0018945 319.1752 128.0818 14.12551754253827
SRMSAT
1 37841U 11058D 16252.51650140 .00000313 00000-0 26742-4 0 9998
2 37841 19.9726 34.2280 0011739 227.3339 190.9724 14.10549519253469
AO-71
1 37854U 11061E 16252.68145546 .00004042 00000-0 22783-3 0 9996
2 37854 101.6965 337.4248 0172242 187.2681 172.6029 15.02602889264638
HRBE
1 37855U 11061F 16252.82708259 .00004126 00000-0 22795-3 0 9995
2 37855 101.7113 335.6561 0185551 191.5719 168.1197 15.01536792264544
HORYU-2
1 38340U 12025D 16251.92947987 .00000475 00000-0 78570-4 0 9995
2 38340 098.3618 240.1713 0012996 107.2642 252.9989 14.75105821221263
RS-40
1 38735U 12041C 16252.80200132 .00000013 00000-0 21115-4 0 9994
2 38735 82.4771 139.6501 0016053 283.8102 76.1191 12.42572991186744
BEESAT-3
1 39134U 13015E 16252.48943894 .00003341 00000-0 18085-3 0 9991
2 39134 64.8707 54.7511 0013813 308.5470 51.4417 15.16375471186748
BEESAT-2
1 39136U 13015G 16252.82604990 .00002338 00000-0 13849-3 0 9990
2 39136 64.8717 60.6966 0013725 307.1641 52.8229 15.13961865186660
ZACUBE-1
1 39417U 13066B 16251.80483395 .00000497 00000-0 69509-4 0 9998
2 39417 97.6716 301.1133 0061060 112.6128 248.1559 14.80471991150990
TRITON-1
1 39427U 13066M 16252.08532004 .00000326 00000-0 60334-4 0 9990
2 39427 97.6619 280.0738 0114958 171.3283 188.9946 14.67251253149674
GOMX-1
1 39430U 13066Q 16252.73907923 .00000344 00000-0 72118-4 0 9995
2 39430 97.6675 267.3260 0151539 211.2986 147.9118 14.58663166148909
LO-74
1 39440U 13066AA 16252.10588236 .00000427 00000-0 66890-4 0 9991
2 39440 97.6660 292.8985 0082233 134.3683 226.4303 14.75228664150501
SPROUT
1 39770U 14029E 16252.01464151 .00001298 00000-0 15620-3 0 9997
2 39770 97.8740 348.3258 0009862 164.5014 195.6482 14.85585711124234
EO-80
1 40032U 14033Y 16252.67355886 .00000629 00000-0 75125-4 0 9995
2 40032 97.9190 157.4726 0012887 138.8195 221.3996 14.87672882120580
VELOX-1
1 40057U 14034E 16252.74336389 .00000798 00000-0 12136-3 0 9997
2 40057 98.1945 342.7960 0009929 236.4939 123.5317 14.76807446118212
DAURIA DX 1
1 40071U 14037C 16252.72336285 .00000384 00000-0 57116-4 0 9998
2 40071 98.3318 346.8548 0007363 233.2852 126.7682 14.80866715117319
